[[{"header":{"parameterUnit":"m.s-1","parameterCategory":1,"la1":30.2991,"la2":30.254,"lo1":-89.0895,"lo2":-89.0444,"dy":0.0017,"dx":0.0017,"nx":28,"ny":28,"refTime":"2024-06-08T03:00:00:Z","depth":0,"parameterNumber":2,"parameterNumberName":"U-component_of_WINDS"},"data":[0,0,0,0,0,0,0,0,0,0,0,0,0,0,0,0,0,0,0,0,0,0,0,0,0,0,0,0,0,0,0,0,0,0,0,0,0,0,0,0,0,0,0,0,0,0,0,0,0,0,0,0,0,0,0,0,0,0,-2.4901,-2.4901,0,-2.4915,-2.4915,-2.4915,-2.4804,-2.4801,-2.4798,-2.4795,-2.4811,-2.4814,-2.4818,0,0,0,0,0,0,0,0,0,0,0,0,0,-2.4779,-2.4781,-2.4901,-2.4901,-2.4901,-2.4915,-2.4915,-2.4915,-2.4805,-2.4801,-2.4797,-2.4793,-2.481,-2.4814,-2.4818,0,0,0,0,0,0,0,0,0,0,0,0,0,-2.4816,-2.4782,-2.4901,-2.4847,-2.4843,-2.4915,-2.4915,-2.4915,-2.4805,-2.4801,-2.4796,-2.4792,-2.4809,-2.4814,-2.4818,-2.4943,0,0,-2.4834,-2.4836,0,0,0,0,0,0,0,0,-2.4814,-2.4821,-2.4855,-2.4851,-2.4846,-2.4853,-2.4878,-2.4924,-2.4807,-2.482,-2.4795,-2.4789,-2.4829,-2.4832,-2.4845,-2.4943,-2.4944,-2.4834,-2.4837,-2.4839,-2.4841,0,0,0,0,0,0,0,-2.4812,-2.482,-2.4906,-2.4856,-2.485,-2.4823,-2.4823,-2.4886,-2.485,-2.4818,-2.481,-2.4813,-2.4826,-2.484,-2.4844,-2.4944,-2.4834,-2.4838,-2.4842,-2.4844,-2.5144,-2.5149,0,0,0,0,0,0,-2.4816,-2.4818,-2.4906,-2.4907,-2.4818,-2.4829,-2.4829,-2.4855,-2.4849,-2.4844,-2.4817,-2.4808,-2.4834,-2.4839,-2.4845,-2.4989,-2.4839,-2.4844,-2.4847,-2.5139,-2.5145,-2.5151,0,0,0,0,0,0,-2.4814,-2.4825,-2.4905,-2.486,-2.4868,-2.4836,-2.4866,-2.4858,-2.4873,-2.4848,-2.4842,-2.4839,-2.4831,-2.4838,-2.4919,-2.4988,-2.4846,-2.4851,-2.5133,-2.5141,-2.5148,-2.528,0,0,0,0,0,0,-2.4811,-2.4825,-2.4872,-2.4862,-2.4871,-2.498,-2.4871,-2.4862,-2.4881,-2.487,-2.4867,-2.4862,-2.4827,-2.4912,-2.4924,-2.4992,-2.4855,-2.5127,-2.5137,-2.5146,-2.5269,-2.5291,-2.5309,0,0,0,0,0,-2.4807,-2.4909,-2.4875,-2.4886,-2.4929,-2.4984,-2.4989,-2.4946,-2.4888,-2.4934,-2.4918,-2.4862,-2.4978,-2.4921,-2.4933,-2.5005,-2.5122,-2.5134,-2.5145,-2.526,-2.5286,-2.5309,0,0,0,0,0,0,-2.4929,-2.4907,-2.4869,-2.497,-2.498,-2.4965,-2.5023,-2.4976,-2.5003,-2.4991,-2.4937,-2.4937,-2.5028,-2.5024,-2.4961,-2.5124,-2.504,-2.5054,-2.5123,-2.5148,-2.5168,-2.5168,-2.4859,0,0,0,0,0,-2.4967,-2.5013,-2.4991,-2.5084,-2.509,-2.5056,-2.5078,-2.5044,-2.5052,-2.5056,-2.5046,-2.5056,-2.5094,-2.5121,-2.5155,-2.5267,-2.5265,-2.5322,-2.5342,-2.5359,-2.5373,-2.5431,-2.5456,-2.5187,-2.5187,-2.5187,0,0,-2.5048,-2.5042,-2.5074,-2.5108,-2.5111,-2.516,-2.506,-2.5116,-2.5152,-2.5064,-2.514,-2.5133,-2.5141,-2.5238,-2.528,-2.5238,-2.5446,-2.5373,-2.5387,-2.5391,-2.5445,-2.5471,-2.5494,-2.5195,-2.5194,-2.5193,0,0,-2.522,-2.522,-2.5296,-2.5301,-2.5306,-2.5282,-2.5301,-2.5293,-2.5284,-2.5359,-2.5294,-2.5336,-2.5404,-2.5411,-2.5424,-2.5597,-2.5547,-2.561,-2.5716,-2.5774,-2.5795,-2.5813,-2.5875,-2.5898,-2.5623,-2.5623,-2.5623,0,-2.532,-2.539,-2.5341,-2.5401,-2.5418,-2.5339,-2.5416,-2.5423,-2.544,-2.5454,-2.5405,-2.5488,-2.5487,-2.5585,-2.5627,-2.564,-2.5659,-2.5611,-2.5796,-2.5814,-2.583,-2.5889,-2.5912,-2.5631,-2.563,-2.5629,-2.5629,0,-2.5513,-2.5563,-2.5623,-2.5641,-2.5664,-2.5733,-2.5694,-2.5723,-2.5687,-2.5668,-2.5745,-2.5742,-2.5773,-2.5794,-2.5759,-2.5887,-2.586,-2.5805,-2.5719,-2.5864,-2.5918,-2.594,-2.5642,-2.5639,-2.5637,-2.5635,0,0,-2.5764,-2.5751,-2.5775,-2.5781,-2.5781,-2.5818,-2.5883,-2.5913,-2.5939,-2.5953,-2.6006,-2.6064,-2.6012,-2.6027,-2.5992,-2.6043,-2.618,-2.5981,-2.598,-2.6019,-2.632,-2.6363,-2.6389,-2.6146,-2.615,-2.6153,-2.632,0,-2.5932,-2.6041,-2.5997,-2.611,-2.6156,-2.6081,-2.6136,-2.6142,-2.6126,-2.6162,-2.6144,-2.6187,-2.6115,-2.6123,-2.617,-2.6154,-2.624,-2.6141,-2.6195,-2.6198,-2.6197,-2.6417,-2.6463,-2.662,-2.634,-2.6344,-2.6346,0,-2.6143,-2.6164,-2.6281,-2.6271,-2.6289,-2.634,-2.6363,-2.6399,-2.6404,-2.6388,-2.6404,-2.6358,-2.642,-2.6334,-2.6419,-2.6353,-2.6372,-2.6367,-2.6372,-2.6377,-2.6282,-2.6429,-2.6669,-2.6693,-2.6379,-2.6377,-2.6374,0,-2.6315,-2.6372,-2.645,-2.6457,-2.6448,-2.6486,-2.6484,-2.6483,-2.6504,-2.6524,-2.6537,-2.6565,-2.6581,-2.6603,-2.6566,-2.6507,-2.6657,-2.6568,-2.6646,-2.6647,-2.6682,-2.6681,-2.693,-2.6693,-2.6693,-2.6693,-2.6692,0,-2.6507,-2.6582,-2.6527,-2.6575,-2.6656,-2.6605,-2.6687,-2.6676,-2.6677,-2.6721,-2.6658,-2.6701,-2.6648,-2.6686,-2.6657,-2.6732,-2.674,-2.6729,-2.6721,-2.6736,-2.6737,-2.6748,-2.6737,-2.6699,-2.6697,-2.6696,-2.6695,0,-2.6714,-2.668,-2.6759,-2.6743,-2.674,-2.6801,-2.6787,-2.6831,-2.6809,-2.6866,-2.6877,-2.6844,-2.6885,-2.6849,-2.689,-2.687,-2.697,-2.6945,-2.6968,-2.6962,-2.7042,-2.7036,-2.7309,-2.7342,-2.7084,-2.7086,-2.7088,0,-2.684,-2.6895,-2.6884,-2.6909,-2.6911,-2.6952,-2.6972,-2.6923,-2.6947,-2.6955,-2.6998,-2.7034,-2.706,-2.7129,-2.7109,-2.7139,-2.7116,-2.7209,-2.712,-2.7133,-2.7118,-2.7115,-2.712,-2.7228,-2.7231,-2.7233,-2.7235,0,-2.7067,-2.7046,-2.7077,-2.7103,-2.7128,-2.7146,-2.7158,-2.7182,-2.7132,-2.7162,-2.7203,-2.7223,-2.7263,-2.73,-2.7323,-2.7321,-2.7271,-2.7263,-2.7283,-2.7299,-2.7311,-2.7306,-2.7019,-2.7258,-2.7256,-2.7254,-2.7253,-2.7252,-2.7237,-2.7282,-2.7282,-2.7318,-2.7322,-2.7335,-2.7375,-2.7358,-2.7391,-2.7419,-2.7388,-2.7438,-2.744,-2.7466,-2.747,-2.7508,-2.7469,-2.7498,-2.7505,-2.7514,-2.7525,-2.7304,-2.7512,-2.7512,-2.7511,-2.751,-2.751,0,-2.7461,-2.7456,-2.749,-2.7509,-2.7538,-2.7486,-2.7497,-2.7524,-2.7569,-2.7574,-2.7601,-2.7648,-2.7682,-2.7664,-2.7694,-2.7728,-2.7706,-2.7738,-2.7735,-2.7735,-2.7558,-2.7538,-2.7755,-2.7755,-2.7755,-2.7755,-2.7755,-2.7755,-2.7581,-2.7655,-2.7635,-2.771,-2.7704,-2.7752,-2.7763,-2.7774,-2.7778,-2.7833,-2.7861,-2.7848,-2.7845,-2.7873,-2.7902,-2.7896,-2.791,-2.7951,-2.7937,-2.7772,-2.7748,-2.7725,-2.7706,-2.7954,-2.7955,-2.811,-2.8112,-2.8113]},{"header":{"parameterUnit":"m.s-1","parameterCategory":1,"la1":30.2991,"la2":30.254,"lo1":-89.0895,"lo2":-89.0444,"dy":0.0017,"dx":0.0017,"nx":28,"ny":28,"refTime":"2024-06-08T03:00:00:Z","depth":0,"parameterNumber":3,"parameterNumberName":"V-component_of_WINDS"},"data":[0,0,0,0,0,0,0,0,0,0,0,0,0,0,0,0,0,0,0,0,0,0,0,0,0,0,0,0,0,0,0,0,0,0,0,0,0,0,0,0,0,0,0,0,0,0,0,0,0,0,0,0,0,0,0,0,0,0,-2.2899,-2.29,0,-2.2923,-2.2923,-2.2923,-2.2926,-2.2926,-2.2926,-2.2925,-2.2947,-2.2948,-2.2948,0,0,0,0,0,0,0,0,0,0,0,0,0,-2.2853,-2.2854,-2.2899,-2.29,-2.29,-2.2923,-2.2923,-2.2924,-2.2926,-2.2926,-2.2925,-2.2925,-2.2947,-2.2948,-2.2948,0,0,0,0,0,0,0,0,0,0,0,0,0,-2.2874,-2.2854,-2.2899,-2.2904,-2.2905,-2.2923,-2.2923,-2.2924,-2.2926,-2.2926,-2.2925,-2.2925,-2.2946,-2.2947,-2.2949,-2.2963,0,0,-2.2952,-2.2953,0,0,0,0,0,0,0,0,-2.2873,-2.2876,-2.2903,-2.2904,-2.2905,-2.2921,-2.2915,-2.2937,-2.2926,-2.2918,-2.2925,-2.2925,-2.2938,-2.294,-2.2945,-2.2964,-2.2965,-2.2952,-2.2953,-2.2954,-2.2954,0,0,0,0,0,0,0,-2.2872,-2.2875,-2.2909,-2.2903,-2.2904,-2.2904,-2.2907,-2.2919,-2.293,-2.2919,-2.2919,-2.2922,-2.2939,-2.2944,-2.2946,-2.2965,-2.2952,-2.2953,-2.2954,-2.2955,-2.2995,-2.2995,0,0,0,0,0,0,-2.287,-2.2874,-2.2908,-2.2909,-2.2888,-2.2905,-2.2908,-2.2916,-2.293,-2.2931,-2.2922,-2.2922,-2.2942,-2.2944,-2.2947,-2.2963,-2.2954,-2.2955,-2.2955,-2.2994,-2.2995,-2.2995,0,0,0,0,0,0,-2.2869,-2.2873,-2.2907,-2.2892,-2.2896,-2.2906,-2.2915,-2.2917,-2.2922,-2.2932,-2.2934,-2.2926,-2.2942,-2.2945,-2.2959,-2.2964,-2.2955,-2.2956,-2.2994,-2.2995,-2.2995,-2.2997,0,0,0,0,0,0,-2.2868,-2.2873,-2.2879,-2.2892,-2.2897,-2.292,-2.2916,-2.2918,-2.2925,-2.2925,-2.2936,-2.2938,-2.2942,-2.2957,-2.296,-2.2966,-2.2957,-2.2994,-2.2994,-2.2995,-2.2997,-2.2998,-2.2999,0,0,0,0,0,-2.2866,-2.2878,-2.2879,-2.2883,-2.2905,-2.292,-2.2923,-2.2928,-2.2925,-2.2931,-2.2937,-2.2937,-2.2963,-2.2958,-2.2962,-2.2968,-2.2993,-2.2994,-2.2995,-2.2996,-2.2997,-2.2999,0,0,0,0,0,0,-2.2865,-2.288,-2.2881,-2.2899,-2.2908,-2.292,-2.2928,-2.2929,-2.2939,-2.2939,-2.2944,-2.2947,-2.296,-2.2965,-2.296,-2.2981,-2.2978,-2.2979,-2.2978,-2.2979,-2.298,-2.2978,-2.2958,0,0,0,0,0,-2.2867,-2.2879,-2.2891,-2.2905,-2.2909,-2.2918,-2.2924,-2.2928,-2.2937,-2.2941,-2.2948,-2.2957,-2.2967,-2.2973,-2.2983,-2.2997,-2.2999,-2.3003,-2.3004,-2.3005,-2.3006,-2.3013,-2.3014,-2.2998,-2.2998,-2.2998,0,0,-2.2871,-2.2881,-2.2888,-2.2905,-2.2913,-2.2923,-2.2921,-2.2933,-2.2941,-2.2943,-2.2956,-2.2962,-2.2971,-2.2985,-2.2992,-2.299,-2.3011,-2.3006,-2.3006,-2.3007,-2.3014,-2.3015,-2.3017,-2.2998,-2.2998,-2.2998,0,0,-2.2883,-2.2893,-2.2905,-2.2912,-2.2924,-2.2929,-2.2932,-2.2944,-2.2948,-2.2962,-2.2963,-2.2972,-2.2989,-2.2996,-2.3001,-2.3015,-2.3015,-2.3018,-2.3023,-2.3029,-2.3031,-2.3032,-2.3036,-2.3037,-2.3019,-2.3019,-2.3019,0,-2.2887,-2.2904,-2.291,-2.2922,-2.2929,-2.2932,-2.2943,-2.295,-2.2964,-2.2968,-2.2966,-2.2987,-2.2994,-2.3009,-2.3012,-2.3017,-2.3019,-2.3017,-2.303,-2.3031,-2.3033,-2.3036,-2.3038,-2.3019,-2.3019,-2.3019,-2.3019,0,-2.2906,-2.2918,-2.2926,-2.294,-2.2948,-2.296,-2.2967,-2.2973,-2.2976,-2.2981,-2.2994,-2.3002,-2.3013,-2.3017,-2.3019,-2.3032,-2.303,-2.3029,-2.3026,-2.3034,-2.3038,-2.3039,-2.302,-2.3019,-2.3019,-2.3019,0,0,-2.2919,-2.2936,-2.2939,-2.2945,-2.2958,-2.2967,-2.2977,-2.2989,-2.2994,-2.3003,-2.3012,-2.3026,-2.3025,-2.3031,-2.3034,-2.304,-2.3049,-2.3038,-2.3038,-2.3039,-2.3062,-2.3062,-2.3064,-2.3049,-2.305,-2.305,-2.3061,0,-2.2933,-2.2953,-2.2959,-2.2976,-2.2986,-2.2988,-2.2997,-2.3005,-2.301,-2.3019,-2.3024,-2.3033,-2.3032,-2.3035,-2.3041,-2.3047,-2.3053,-2.3046,-2.3056,-2.3056,-2.3053,-2.3066,-2.3066,-2.3076,-2.3062,-2.3063,-2.3063,0,-2.2951,-2.2961,-2.2979,-2.299,-2.2994,-2.3002,-2.3013,-2.3021,-2.303,-2.3033,-2.3039,-2.3042,-2.3052,-2.3048,-2.3061,-2.3056,-2.306,-2.3063,-2.3064,-2.3064,-2.306,-2.3066,-2.308,-2.3081,-2.3065,-2.3065,-2.3065,0,-2.2957,-2.2975,-2.2988,-2.2993,-2.3006,-2.3012,-2.3017,-2.3026,-2.3032,-2.304,-2.3044,-2.3053,-2.3058,-2.3065,-2.3069,-2.3066,-2.3082,-2.3078,-2.3084,-2.3083,-2.3086,-2.3086,-2.31,-2.309,-2.309,-2.309,-2.309,0,-2.2971,-2.2982,-2.2991,-2.2999,-2.301,-2.3016,-2.3027,-2.3032,-2.304,-2.3048,-2.305,-2.3057,-2.3063,-2.307,-2.3074,-2.3084,-2.3086,-2.3088,-2.3088,-2.3087,-2.3087,-2.309,-2.3089,-2.3091,-2.3091,-2.309,-2.309,0,-2.298,-2.2987,-2.3001,-2.3012,-2.3015,-2.3023,-2.3032,-2.3039,-2.3043,-2.3053,-2.3056,-2.3063,-2.3072,-2.3077,-2.3088,-2.309,-2.3101,-2.3102,-2.3098,-2.3099,-2.3103,-2.3102,-2.3119,-2.3121,-2.3111,-2.3111,-2.3111,0,-2.2989,-2.2997,-2.3009,-2.3014,-2.302,-2.3029,-2.3036,-2.3041,-2.3047,-2.3057,-2.3063,-2.3072,-2.308,-2.3094,-2.3099,-2.3108,-2.3108,-2.3113,-2.3109,-2.3107,-2.3107,-2.3106,-2.3107,-2.3114,-2.3114,-2.3114,-2.3114,0,-2.3002,-2.3005,-2.3014,-2.3024,-2.3032,-2.304,-2.3048,-2.3052,-2.3059,-2.3065,-2.3075,-2.3081,-2.3092,-2.3101,-2.3109,-2.3114,-2.3115,-2.3115,-2.3117,-2.3115,-2.3113,-2.3114,-2.31,-2.3115,-2.3115,-2.3115,-2.3115,-2.3115,-2.301,-2.3017,-2.3026,-2.3036,-2.3043,-2.305,-2.3057,-2.3063,-2.3071,-2.3081,-2.3083,-2.3093,-2.31,-2.3112,-2.3117,-2.3124,-2.3123,-2.3125,-2.3126,-2.3126,-2.3126,-2.3112,-2.3126,-2.3125,-2.3125,-2.3125,-2.3125,0,-2.3023,-2.3029,-2.3038,-2.3049,-2.3056,-2.3057,-2.3066,-2.3072,-2.3081,-2.3088,-2.3095,-2.3106,-2.3114,-2.312,-2.3128,-2.3133,-2.3133,-2.3134,-2.3134,-2.3135,-2.3127,-2.3124,-2.3134,-2.3134,-2.3134,-2.3134,-2.3134,-2.3134,-2.303,-2.3042,-2.3045,-2.306,-2.3066,-2.3076,-2.308,-2.3086,-2.3092,-2.3104,-2.3111,-2.3115,-2.3122,-2.313,-2.3137,-2.3139,-2.3141,-2.3143,-2.3144,-2.3136,-2.3135,-2.3135,-2.3132,-2.3143,-2.3143,-2.3151,-2.3152,-2.3152]}]]